Details From LEXJ - Santander
To LECO - A Coruna
Flight Number -
Tags generated
Created
Modified
Stats Distance 199 nm / 369 km
Max Altitude 22,400 ft / 6,828 m
Waypoints 3
Social Downloads 1
Likes 0
Share VATSIM

Download

Looking for another format? Having issues loading an existing format? Contact us
Advertisement - Login to hide

Notes

Basic altitude profile: - Ascent Rate: 2500ft/min - Ascent Speed: 250kts - Cruise Altitude: 35000ft - Cruise Speed: 420kts - Descent Rate: 1500ft/min - Descent Speed: 250kts

Route

LEXJ RATPO LECO

ID Type Via Altitude (ft/m) Position (lat/lon) Dist (leg/tot) Name
O LEXJ APT - 0 / 0 43.42719 / -3.82047 - / 0 nm Santander
RATPO FIX - 22,400 / 6,828 43.31711 / -5.98170 94 / 94 nm
O LECO APT - 0 / 0 43.30226 / -8.37709 104 / 199 nm A Coruna

Altitude Profile

Advertisement - Login to hide

Weather


0- 5 10 15 20 25 30 35+ Temperature / °C

Clouds and Precipitation
Forecast for 2019-01-22 00:00 UTC. Updated 35 minutes ago

Ground ~20,000 ft ~40,000 ft Winds

LEXJ

Details ICAO LEXJ (SDR)
Name Santander
Region Spain
Timezone Europe/Madrid (UTC+1.0)
Stats Elevation 16 ft / 5 m (AMSL)
Location 43.426900° -3.820000°
Runways 1
Magnetic Variation 0.772° W

METAR

LEXJ 212200Z 22007KT 9999 FEW066 08/05 Q1023

Decode

TAF

TAF LEXJ 212000Z 2121/2221 24009KT 9999 SCT030 BKN045 TX11/2215Z TN07/2206Z TEMPO 2121/2212 25015G25KT BECMG 2209/2212 29015G27KT TEMPO 2206/2215 RA PROB40 TEMPO 2209/2221 3000 RA BKN014

Decode

Departure Runways

ID Width Length Bearing (true/mag) Surface Threshold Overrun Markings Lighting
11 148 ft / 45 m 7,619 ft / 2,322 m 110.20° / 110.97° ASPHALT 0 ft / 0 m 0 ft / 0 m PREC-APP EDGE THRESHOLD REIL-OMNI
29 148 ft / 45 m 7,619 ft / 2,322 m 290.21° / 290.99° ASPHALT 0 ft / 0 m 0 ft / 0 m PREC-APP EDGE THRESHOLD REIL-OMNI

LECO

Details ICAO LECO (LCG)
Name A Coruna
Region Spain
Timezone Europe/Madrid (UTC+1.0)
Stats Elevation 330 ft / 101 m (AMSL)
Location 43.301900° -8.377220°
Runways 1
Magnetic Variation 2.243° W

METAR

LECO 212200Z VRB02KT 9999 FEW026 BKN032 08/07 Q1025 NOSIG

Decode

TAF

TAF LECO 212000Z 2121/2221 VRB05KT 9999 SCT030 TX13/2214Z TN05/2206Z PROB30 TEMPO 2121/2124 3000 -RA BKN014 TEMPO 2203/2212 3000 RA BKN010 PROB30 TEMPO 2212/2221 3000 RA BECMG 2206/2210 33010KT TEMPO 2208/2221 33015G25KT

Decode

Destination Runways

ID Width Length Bearing (true/mag) Surface Threshold Overrun Markings Lighting
03 148 ft / 45 m 6,364 ft / 1,940 m 30.94° / 33.18° ASPHALT 0 ft / 0 m 0 ft / 0 m PREC-APP CENTERLINE EDGE THRESHOLD REIL-OMNI
21 148 ft / 45 m 6,364 ft / 1,940 m 210.94° / 213.19° ASPHALT 0 ft / 0 m 0 ft / 0 m PREC-APP CENTERLINE EDGE THRESHOLD REIL-OMNI

Approach Navaids

Runway Type Ident Frequency Range Bearing (true/mag) Slope Elevation
21 DME LCO 109.90 MHz 18 nm / 33 km - - 293 ft / 89 m (AMSL)
21 LOC-ILS LCO 109.90 MHz 18 nm / 33 km 210.94° / 213.18 ° - 330 ft / 101 m (AMSL)
21 GS LCO 109.90 MHz 10 nm / 19 km 210.94° / 213.18 ° 3.00° 330 ft / 101 m (AMSL)

Popular Alternatives